timestamp,surface_pressure_avg,surface_temp_avg,battery_voltage,lat,long
2021-03-10 00:09:01+00:00,253.1165,1.08,12.89,47.84626,-54.09684
2021-03-10 00:19:01+00:00,249.3747,1.08,12.65,47.84626,-54.09684
2021-03-10 00:29:01+00:00,238.9414,1.08,12.65,47.84626,-54.09684
2021-03-10 00:39:01+00:00,231.5465,1.07,12.65,47.84626,-54.09684
2021-03-10 00:49:01+00:00,228.6264,1.07,12.65,47.84626,-54.09684
2021-03-10 00:59:01+00:00,223.5148,1.09,12.65,47.84626,-54.09684
2021-03-10 01:09:01+00:00,219.813,1.09,12.65,47.84626,-54.09684
2021-03-10 01:19:01+00:00,213.8564,1.03,12.65,47.84626,-54.09684
2021-03-10 01:29:01+00:00,206.7948,1.03,12.65,47.84626,-54.09684
2021-03-10 01:39:01+00:00,202.4731,1.05,12.65,47.84626,-54.09684
2021-03-10 01:49:01+00:00,202.1147,1.07,12.65,47.84626,-54.09684
2021-03-10 01:59:01+00:00,197.2281,1.08,12.65,47.84626,-54.09684
2021-03-10 02:09:01+00:00,191.7198,1.07,12.65,47.84626,-54.09684
2021-03-10 02:19:01+00:00,192.1165,1.06,12.65,47.84626,-54.09684
2021-03-10 02:29:01+00:00,190.3448,1.05,12.65,47.84626,-54.09684
2021-03-10 02:39:01+00:00,186.9064,1.02,12.65,47.84626,-54.09684
2021-03-10 02:49:01+00:00,188.1864,1.0,12.65,47.84626,-54.09684
2021-03-10 02:59:01+00:00,188.3332,1.0,12.65,47.84626,-54.09684
2021-03-10 03:09:01+00:00,184.4632,1.0,12.65,47.84626,-54.09684
2021-03-10 03:19:01+00:00,182.7815,1.0,12.57,47.84626,-54.09684
2021-03-10 03:29:01+00:00,186.2065,1.0,12.57,47.84626,-54.09684
2021-03-10 03:39:01+00:00,186.1598,1.0,12.57,47.84626,-54.09684
2021-03-10 03:49:01+00:00,181.9749,1.0,12.57,47.84626,-54.09684
2021-03-10 03:59:01+00:00,181.1798,1.0,12.57,47.84626,-54.09684
2021-03-10 04:09:01+00:00,182.8748,1.0,12.57,47.84626,-54.09684
2021-03-10 04:19:01+00:00,180.4365,1.0,12.57,47.84626,-54.09684
2021-03-10 04:29:01+00:00,185.0665,1.0,12.57,47.84626,-54.09684
2021-03-10 04:39:01+00:00,194.5048,1.0,12.57,47.84626,-54.09684
2021-03-10 04:49:01+00:00,193.1181,1.0,12.57,47.84626,-54.09684
2021-03-10 04:59:01+00:00,194.5781,1.0,12.57,47.84626,-54.09684
2021-03-10 05:09:01+00:00,203.6514,1.0,12.57,47.84626,-54.09684
2021-03-10 05:19:01+00:00,207.0598,1.0,12.57,47.84626,-54.09684
2021-03-10 05:29:01+00:00,208.5281,0.9,12.57,47.84626,-54.09684
2021-03-10 05:39:01+00:00,215.0148,0.9,12.57,47.84626,-54.09684
2021-03-10 05:49:01+00:00,218.5464,0.9,12.57,47.84626,-54.09684
2021-03-10 05:59:01+00:00,220.2398,0.93,12.57,47.84626,-54.09684
2021-03-10 06:09:01+00:00,232.1197,1.0,12.57,47.84626,-54.09684
2021-03-10 06:19:01+00:00,243.9648,1.03,12.57,47.84626,-54.09684
2021-03-10 06:29:01+00:00,249.123,1.09,12.57,47.84626,-54.09684
2021-03-10 06:39:01+00:00,254.0981,1.1,12.57,47.84626,-54.09684
2021-03-10 06:49:01+00:00,266.0298,1.1,12.57,47.84626,-54.09684
2021-03-10 06:59:01+00:00,274.6581,1.1,12.57,47.84626,-54.09684
2021-03-10 07:09:01+00:00,278.2581,1.1,12.57,47.84626,-54.09684
2021-03-10 07:19:01+00:00,282.0748,1.04,12.57,47.84626,-54.09684
2021-03-10 07:29:01+00:00,287.9014,1.0,12.57,47.84626,-54.09684
2021-03-10 07:39:01+00:00,291.1614,0.97,12.57,47.84626,-54.09684
2021-03-10 07:49:01+00:00,296.563,1.0,12.57,47.84626,-54.09684
2021-03-10 07:59:01+00:00,303.128,1.0,12.57,47.84626,-54.09684
2021-03-10 08:09:01+00:00,305.013,1.03,12.57,47.84626,-54.09684
2021-03-10 08:19:01+00:00,303.7064,1.0,12.57,47.84626,-54.09684
2021-03-10 08:29:01+00:00,311.303,1.0,12.57,47.84626,-54.09684
2021-03-10 08:39:01+00:00,316.6747,1.0,12.57,47.84626,-54.09684
2021-03-10 08:49:01+00:00,315.5463,0.9,12.57,47.84626,-54.09684
2021-03-10 08:59:01+00:00,318.4564,0.8,12.57,47.84626,-54.09684
2021-03-10 09:09:01+00:00,328.2963,0.8,12.57,47.84626,-54.09684
2021-03-10 09:19:01+00:00,328.9863,0.79,12.57,47.84626,-54.09684
2021-03-10 09:29:01+00:00,324.823,0.76,12.57,47.84626,-54.09684
2021-03-10 09:39:01+00:00,330.2631,0.75,12.57,47.84626,-54.09684
2021-03-10 09:49:01+00:00,335.8296,0.7,12.57,47.84626,-54.09684
2021-03-10 09:59:01+00:00,331.4563,0.69,12.57,47.84626,-54.09684
2021-03-10 10:09:01+00:00,333.3730000000001,0.66,12.57,47.84626,-54.09684
2021-03-10 10:19:01+00:00,337.973,0.67,12.57,47.84626,-54.09684
2021-03-10 10:29:01+00:00,334.3213,0.6,12.57,47.84626,-54.09684
2021-03-10 10:39:01+00:00,326.2397,0.6,12.57,47.84626,-54.09684
2021-03-10 10:49:01+00:00,325.8713,0.6,12.57,47.84626,-54.09684
2021-03-10 10:59:01+00:00,326.1146,0.6,12.57,47.84626,-54.09684
2021-03-10 11:09:01+00:00,318.9547,0.6,12.57,47.84626,-54.09684
2021-03-10 11:19:01+00:00,314.3464,0.58,14.56,47.84626,-54.09684
2021-03-10 11:29:01+00:00,311.3514,0.56,14.56,47.84626,-54.09684
2021-03-10 11:39:01+00:00,305.6564,0.56,14.56,47.84626,-54.09684
2021-03-10 11:49:01+00:00,301.7029,0.54,14.56,47.84626,-54.09684
2021-03-10 11:59:01+00:00,296.9664,0.57,14.56,47.84626,-54.09684
2021-03-10 12:09:01+00:00,289.3796,0.6,14.56,47.84626,-54.09684
2021-03-10 12:19:01+00:00,281.7047,0.61,14.8,47.84626,-54.09684
2021-03-10 12:29:01+00:00,285.3231,0.7,14.8,47.84626,-54.09684
2021-03-10 12:39:01+00:00,284.0398,0.7,14.8,47.84626,-54.09684
2021-03-10 12:49:01+00:00,272.1047,0.7,14.8,47.84626,-54.09684
2021-03-10 12:59:01+00:00,263.8448,0.76,14.8,47.84626,-54.09684
2021-03-10 13:09:01+00:00,263.4147,0.8,14.8,47.84626,-54.09684
2021-03-10 13:19:01+00:00,258.6048,0.8,14.8,47.84626,-54.09684
2021-03-10 13:29:01+00:00,250.1114,0.88,14.8,47.84626,-54.09684
2021-03-10 13:39:01+00:00,243.6631,0.9,14.8,47.84626,-54.09684
2021-03-10 13:49:01+00:00,240.8931,0.9,14.8,47.84626,-54.09684
2021-03-10 13:59:01+00:00,233.8114,0.91,14.8,47.84626,-54.09684
2021-03-10 14:09:01+00:00,227.8514,0.96,14.8,47.84626,-54.09684
2021-03-10 14:19:01+00:00,223.7215,0.99,14.72,47.84626,-54.09684
2021-03-10 14:29:01+00:00,216.6648,1.0,14.72,47.84626,-54.09684
2021-03-10 14:39:01+00:00,210.5898,1.0,14.72,47.84626,-54.09684
2021-03-10 14:49:01+00:00,208.4881,1.0,14.72,47.84626,-54.09684
2021-03-10 14:59:01+00:00,204.9781,1.03,14.72,47.84626,-54.09684
2021-03-10 15:09:01+00:00,198.2831,1.08,14.72,47.84626,-54.09684
2021-03-10 15:19:01+00:00,194.4631,1.09,14.64,47.84626,-54.09684
2021-03-10 15:29:01+00:00,195.0565,1.1,14.64,47.84626,-54.09684
2021-03-10 15:39:01+00:00,193.0948,1.1,14.64,47.84626,-54.09684
2021-03-10 15:49:01+00:00,190.5048,1.13,14.64,47.84626,-54.09684
2021-03-10 15:59:01+00:00,190.9565,1.18,14.64,47.84626,-54.09684
2021-03-10 16:09:01+00:00,191.5948,1.2,14.64,47.84626,-54.09684
2021-03-10 16:19:01+00:00,190.7815,1.2,14.56,47.84626,-54.09684
2021-03-10 16:29:01+00:00,187.9131,1.2,14.56,47.84626,-54.09684
2021-03-10 16:39:01+00:00,186.9414,1.2,14.56,47.84626,-54.09684
2021-03-10 16:49:01+00:00,191.0714,1.2,14.56,47.84626,-54.09684
2021-03-10 16:59:01+00:00,193.1265,1.2,14.56,47.84626,-54.09684
2021-03-10 17:09:01+00:00,190.4748,1.2,14.56,47.84626,-54.09684
2021-03-10 17:19:01+00:00,191.1581,1.2,14.48,47.84626,-54.09684
2021-03-10 17:29:01+00:00,198.6048,1.2,14.48,47.84626,-54.09684
2021-03-10 17:39:01+00:00,199.5048,1.2,14.48,47.84626,-54.09684
2021-03-10 17:49:01+00:00,195.8881,1.2,14.48,47.84626,-54.09684
2021-03-10 17:59:01+00:00,199.4198,1.19,14.48,47.84626,-54.09684
2021-03-10 18:09:01+00:00,207.7231,1.18,14.48,47.84626,-54.09684
2021-03-10 18:19:01+00:00,209.0714,1.18,14.32,47.84626,-54.09684
2021-03-10 18:29:01+00:00,209.8847,1.19,14.32,47.84626,-54.09684
2021-03-10 18:39:01+00:00,218.7947,1.2,14.32,47.84626,-54.09684
2021-03-10 18:49:01+00:00,227.0464,1.2,14.32,47.84626,-54.09684
2021-03-10 18:59:01+00:00,230.8314,1.2,14.32,47.84626,-54.09684
2021-03-10 19:09:01+00:00,235.8014,1.2,14.32,47.84626,-54.09684
2021-03-10 19:19:01+00:00,241.6248,1.2,14.16,47.84626,-54.09684
2021-03-10 19:29:01+00:00,249.3064,1.2,14.16,47.84626,-54.09684
2021-03-10 19:39:01+00:00,256.8764,1.2,14.16,47.84626,-54.09684
2021-03-10 19:49:01+00:00,262.5864,1.19,14.16,47.84626,-54.09684
2021-03-10 19:59:01+00:00,264.8747,1.19,14.16,47.84626,-54.09684
2021-03-10 20:09:01+00:00,270.3197,1.18,14.16,47.84626,-54.09684
2021-03-10 20:19:01+00:00,279.1998,1.18,13.92,47.84626,-54.09684
2021-03-10 20:29:01+00:00,284.308,1.17,13.92,47.84626,-54.09684
2021-03-10 20:39:01+00:00,283.4581,1.18,13.92,47.84626,-54.09684
2021-03-10 20:49:01+00:00,288.1531,1.19,13.92,47.84626,-54.09684
2021-03-10 20:59:01+00:00,292.6831,1.2,13.92,47.84626,-54.09684
2021-03-10 21:09:01+00:00,295.2546,1.19,13.92,47.84626,-54.09684
2021-03-10 21:19:01+00:00,296.488,1.19,13.6,47.84626,-54.09684
2021-03-10 21:29:01+00:00,299.3747,1.18,13.6,47.84626,-54.09684
2021-03-10 21:39:01+00:00,301.673,1.14,13.6,47.84626,-54.09684
2021-03-10 21:49:01+00:00,302.5897,1.11,13.6,47.84626,-54.09684
2021-03-10 21:59:01+00:00,304.4797,1.12,13.6,47.84626,-54.09684
2021-03-10 22:09:01+00:00,307.1246,1.12,13.6,47.84626,-54.09684
2021-03-10 22:19:01+00:00,310.4514,1.12,13.21,47.84626,-54.09684
2021-03-10 22:29:01+00:00,308.8231,1.1,13.21,47.84626,-54.09684
2021-03-10 22:39:01+00:00,311.738,1.1,13.21,47.84626,-54.09684
2021-03-10 22:49:01+00:00,315.6412,1.1,13.21,47.84626,-54.09684
2021-03-10 22:59:01+00:00,313.4996,1.1,13.21,47.84626,-54.09684
2021-03-10 23:09:01+00:00,308.2764,1.1,13.21,47.84626,-54.09684
2021-03-10 23:19:01+00:00,307.6413,1.1,12.89,47.84626,-54.09684
2021-03-10 23:29:01+00:00,308.8147,1.1,12.89,47.84626,-54.09684
2021-03-10 23:39:01+00:00,303.0397,1.09,12.89,47.84626,-54.09684
2021-03-10 23:49:01+00:00,297.7797,1.09,12.89,47.84626,-54.09684
2021-03-10 23:59:01+00:00,294.3097,1.09,12.89,47.84626,-54.09684
